15:03
Airports
History
Links
Donate
Help keep this website running!
PayPal
Bitcoin
This page is community maintained. The information is intended for PC simulator navigation or reference.
Always use approved charts for navigation.
SBLO
Londrina
Londrina (SBLO)
Londrina, Parana, Brazil (86040)
(C)
Lat/Lng:23° 20' 1.05" S / 51° 7' 48.26" W
-23.333624 / -51.130073
Elevation:1867'ft / 569mMSL
ID / ICAO:SBLO
Runways:1
Longest:13-31
Asphalt 2,108m / 6,917ft
Controlled:Yes
METAR15:00 GMT 2017-11-20
Altimeter: 29.91
Visibility: 6.2 statute miles
Wind: 6 knots (from 070°)
Temp: 28°c / 82°f
Humidity: 65.8%

METAR: SBLO 201500Z 07006KT 9999 BKN030 28/21 Q1013

(Powered by phpweather)
Airport Radio Frequencies
ATIS: 127.67
Tower: 118.4
Approach: 129.69, 129.7
Runway 13 / 31
Dimensions:2108.2 x 45.1m 6917' x 148'ft
Surface:Asphalt
Edge Lights:Low intensity
Runway 13 [A]Runway 31 [B]
Heading:110°TH 290°TH
Lat:
Lng:
23° 19' 49.2"S
51° 8' 23.16"W
23° 20' 12.89"S
51° 7' 13.36"W
User Notes and Comments
23° 20' 1.05" S / 51° 7' 48.26" W
Distance To
Airport ID:
Nearby Airports
4 14 Bis 9.0 NM
SSOK NNW 336°
4 Fazenda Santa Maria 15.8 NM
SSWM SW 223°
(C) Sertanopolis 20.2 NM
SSSZ NNE 21°
(C) Arapongas 23.0 NM
SSOG W 266°
4 Fazenda Congonhas 23.9 NM
SSXA NNE 31°
(C) Apucarana 25.0 NM
SSAP SW 220°
4 Tamarana Metais 25.8 NM
SNET S 177°
VFR Chart
Flight Planning at SkyVector.com